Hourly Weather Roundup
Issued by NWS Central Illinois

Home | Current Version | Previous Version | Text Only | Print | Product List | Glossary On
Versions: 1 2 3 4 5 6 7 8 9 10 11 12 13 14 15 16 17 18 19 20 21 22 23 24 25 26 27 28 29 30 31 32 33 34 35 36 37 38 39 40 41 42 43 44 45 46 47 48 49 50
000
NZUS43 KILX 311610
HWRILX

AREA WEATHER ROUNDUP
NATIONAL WEATHER SERVICE, LINCOLN IL
1100 AM CDT TUE MAR 31 2015


CITY           SKY/WX    TMP DP  RH WIND       PRES   REMARKS
BLOOMINGTON    SUNNY     58  40  51 NW13      29.96R
CHAMPAIGN      SUNNY     59  37  44 NW17      29.93R
DECATUR        SUNNY     63  37  38 N14       29.95R
EFFINGHAM      SUNNY     64  34  33 NW13G21   29.95R
FLORA          SUNNY     64  40  41 NW13      29.94R
GALESBURG      SUNNY     59  38  45 NW10      29.96R
JACKSONVILLE   SUNNY     66  35  32 NW14      29.97S
LACON          SUNNY     56  36  47 N10       29.95R
LAWRENCEVILLE  SUNNY     66  41  40 NW14      29.91R
LITCHFIELD     SUNNY     62  36  38 N14       29.97R
$$


CITY           SKY/WX    TMP DP  RH WIND       PRES   REMARKS
LINCOLN        SUNNY     62  37  40 N9        29.95R
MACOMB         SUNNY     61  36  39 NW9       29.99S
MATTOON        SUNNY     62  38  40 NW18      29.93R
MT CARMEL AP   SUNNY     66  36  32 NW12G17   29.91S
OLNEY-NOBLE AP SUNNY     64  41  42 NW13      29.93S
PARIS          SUNNY     60  42  52 NW15      29.92R
PEORIA         SUNNY     60  36  40 N7        29.96R
PONTIAC        SUNNY     56  40  55 N15G22    29.94R
RANTOUL        SUNNY     59  40  48 NW12G18   29.93R
ROBINSON       SUNNY     63  39  41 NW16      29.92R
SPRINGFIELD    SUNNY     65  36  34 N15G21    29.96R
TAYLORVILLE    SUNNY     61  37  41 NW14      29.96R
$$

...REGIONAL REPORTS...


CITY           SKY/WX    TMP DP  RH WIND       PRES   REMARKS
CHICAGO O`HARE PTSUNNY   47  37  68 N13       29.92R
KANKAKEE       MOSUNNY   51  42  71 N12       29.93R
MOLINE         SUNNY     57  37  47 NW7       29.96R
MOUNT VERNON   MOSUNNY   64  37  36 N7        29.96R
PITTSFIELD     SUNNY     64  35  33 NW14      29.99S
QUINCY         SUNNY     63  34  33 NW8       29.98S
ROCKFORD       CLOUDY    45  37  73 NW7       29.97R
$$


CITY           SKY/WX    TMP DP  RH WIND       PRES   REMARKS
BURLINGTON     SUNNY     62  37  39 N7        29.97R
CEDAR RAPIDS   SUNNY     59  38  45 NW12      29.95S
DES MOINES     SUNNY     66  34  30 NW13      30.00S
KIRKSVILLE     SUNNY     67  33  28 N12       30.01R
OTTUMWA        SUNNY     64  36  35 W7        29.98R
ST LOUIS       MOSUNNY   67  37  33 N9        29.99R
$$


CITY           SKY/WX    TMP DP  RH WIND       PRES   REMARKS
TERRE HAUTE    SUNNY     60  41  49 NW15G22   29.90R
EVANSVILLE     SUNNY     68  42  38 W12       29.93R
INDIANAPOLIS   MOSUNNY   61  37  41 W22G28    29.85R
LAFAYETTE      SUNNY     55  39  54 N17G30    29.88R
MADISON        MOSUNNY   47  36  65 NW9       29.94R
MILWAUKEE      PTSUNNY   47  37  68 NE8       29.93S
$$




USA.gov is the U.S. government's official web portal to all federal, state and local government web resources and services.